Tracking 32139 objects as of 18-Nov-2025
HD Live streaming from Space Station
objects crossing your sky now

STARLINK-35330

Track STARLINK-35330 now!
10-day predictions
STARLINK-35330 is classified as:


NORAD ID: 65791
Int'l Code: 2025-218A
Perigee: 555.0 km
Apogee: 558.2 km
Inclination: 97.6 °
Period: 95.6 minutes
Semi major axis: 6927 km
RCS: Unknown
Launch date: September 26, 2025
Source: United States (US)
Launch site: AIR FORCE EASTERN TEST RANGE (AFETR)
Your satellite tracking list
Your tracking list is empty




NASA's NSSDC Master Catalog

Two Line Element Set (TLE):
1 65791U 25218A   25321.49628869  .00007447  00000-0  51964-3 0  9991
2 65791  97.6039 182.2976 0002306  90.7767 269.3724 15.05656313  8080
Source of the keplerian elements: AFSPC